�N����,����,�~����,�C��,���x,�C��,����,���ϕ���,�ő�u�ԕ���,�ő厞����,���˗�,�I�_���x,�n�����x,�ő啗���N��,DTYPE
"16/09/15","00:10",0.0,22.2,84.2,1009.7,305.0,1.1,1.7,323.7,0.00,19.4,24.4,"00:08:56",1
"16/09/15","00:20",0.0,22.1,84.5,1010.0,311.4,1.2,2.1,335.1,0.00,19.4,24.3,"00:19:44",1
"16/09/15","00:30",0.0,22.1,84.8,1009.7,326.6,1.3,2.4,321.1,0.00,19.5,24.1,"00:21:28",1
"16/09/15","00:40",0.0,22.0,84.9,1009.5,329.0,1.6,2.5,355.2,0.00,19.4,24.4,"00:32:40",1
"16/09/15","00:50",0.0,22.0,85.2,1010.0,313.4,1.3,1.8,327.3,0.00,19.4,24.3,"00:40:56",1
"16/09/15","01:00",0.0,22.0,85.3,1010.0,313.8,1.2,2.0,324.3,0.00,19.5,24.3,"00:52:16",1
"16/09/15","01:10",0.0,22.0,85.3,1010.0,318.1,1.3,2.5,353.7,0.00,19.5,24.4,"01:07:36",1
"16/09/15","01:20",0.0,22.0,85.2,1010.0,327.6,1.5,2.5,338.5,0.00,19.4,24.1,"01:15:52",1
"16/09/15","01:30",0.0,22.0,85.4,1009.7,324.4,1.3,2.1,349.4,0.00,19.5,24.3,"01:20:08",1
"16/09/15","01:40",0.0,21.8,85.9,1010.2,299.7,1.0,1.8,338.5,0.00,19.4,24.1,"01:38:48",1
"16/09/15","01:50",0.0,21.8,85.9,1010.0,305.9,1.1,1.8,330.5,0.00,19.4,24.4,"01:46:24",1
"16/09/15","02:00",0.0,21.8,86.0,1009.7,324.2,1.3,2.0,357.2,0.00,19.4,24.2,"01:58:16",1
"16/09/15","02:10",0.0,21.7,86.5,1010.2,314.6,1.1,1.7,321.4,0.00,19.4,23.9,"02:00:16",1
"16/09/15","02:20",0.0,21.7,86.6,1010.2,311.9,1.1,1.6,320.1,0.00,19.4,24.2,"02:10:40",1
"16/09/15","02:30",0.0,21.6,86.6,1010.2,321.1,1.1,1.9,318.5,0.00,19.3,24.2,"02:25:52",1
"16/09/15","02:40",0.0,21.6,86.6,1009.5,330.4,1.3,2.0,346.0,0.00,19.3,24.1,"02:33:44",1
"16/09/15","02:50",0.0,21.6,86.8,1009.7,324.1,1.3,2.9,347.5,0.00,19.3,24.1,"02:49:20",1
"16/09/15","03:00",0.0,21.6,87.0,1010.0,314.2,1.2,2.8,341.2,0.00,19.4,23.9,"02:52:40",1
"16/09/15","03:10",0.0,21.7,87.2,1010.0,321.5,1.3,2.5,349.1,0.00,19.5,24.0,"03:00:16",1
"16/09/15","03:20",0.0,21.6,87.7,1010.2,314.7,1.0,1.6,339.1,0.00,19.5,24.2,"03:13:28",1
"16/09/15","03:30",0.0,21.5,88.0,1009.7,302.4,1.0,1.9,326.3,0.00,19.5,24.1,"03:24:40",1
"16/09/15","03:40",0.0,21.5,88.0,1010.0,321.7,1.1,1.8,324.0,0.00,19.5,24.0,"03:37:28",1
"16/09/15","03:50",0.0,21.5,88.0,1009.7,308.0,1.1,1.7,310.4,0.00,19.5,23.8,"03:45:36",1
"16/09/15","04:00",0.0,21.5,87.7,1009.5,322.4,1.1,2.1,344.3,0.00,19.4,23.8,"03:55:20",1
"16/09/15","04:10",0.0,21.3,87.9,1010.0,318.6,1.1,1.8,325.1,0.00,19.3,24.1,"04:02:24",1
"16/09/15","04:20",0.0,21.2,88.4,1009.7,320.6,1.3,2.2,337.9,0.00,19.2,23.9,"04:10:40",1
"16/09/15","04:30",0.0,21.1,88.8,1009.7,327.4,1.5,2.1,23.8,0.00,19.2,23.8,"04:24:32",1
"16/09/15","04:40",0.0,20.9,89.3,1010.2,310.3,1.2,1.8,330.9,0.00,19.1,23.9,"04:33:28",1
"16/09/15","04:50",0.0,20.9,89.7,1010.0,312.4,1.2,1.9,305.3,0.00,19.2,23.9,"04:49:44",1
"16/09/15","05:00",0.0,20.7,90.0,1009.7,306.0,1.1,1.9,319.0,0.00,19.0,23.9,"04:55:12",1
"16/09/15","05:10",0.0,20.6,90.4,1009.7,309.5,1.1,1.7,337.1,0.00,19.0,23.8,"05:08:24",1
"16/09/15","05:20",0.0,20.5,90.8,1009.7,326.1,1.5,2.4,334.3,0.00,19.0,23.7,"05:15:20",1
"16/09/15","05:30",0.0,20.4,91.1,1010.0,306.1,1.1,1.8,320.8,0.00,18.9,23.7,"05:21:28",1
"16/09/15","05:40",0.0,20.4,91.3,1010.4,304.2,1.2,1.7,317.2,0.00,19.0,23.7,"05:32:40",1
"16/09/15","05:50",0.0,20.5,91.1,1010.2,306.1,1.3,1.6,313.1,0.00,19.0,23.7,"05:42:24",1
"16/09/15","06:00",0.0,20.6,90.9,1010.2,317.7,1.3,1.8,335.5,0.00,19.1,23.5,"05:56:56",1
"16/09/15","06:10",0.0,20.6,90.7,1010.4,322.2,1.3,1.9,329.9,0.00,19.1,23.7,"06:07:44",1
"16/09/15","06:20",0.0,20.6,90.8,1010.2,317.9,1.3,1.7,311.3,0.00,19.1,23.5,"06:10:24",1
"16/09/15","06:30",0.0,20.9,90.6,1010.2,304.2,1.0,1.7,329.8,0.01,19.3,23.6,"06:28:48",1
"16/09/15","06:40",0.0,21.1,90.3,1010.4,299.8,1.1,1.7,320.7,0.02,19.5,23.4,"06:31:36",1
"16/09/15","06:50",0.0,21.5,89.4,1010.4,314.6,1.0,1.4,318.1,0.04,19.7,23.6,"06:48:32",1
"16/09/15","07:00",0.0,21.9,87.6,1010.4,306.6,0.8,1.7,340.3,0.04,19.8,23.4,"06:54:00",1
"16/09/15","07:10",0.0,22.0,86.6,1010.4,328.6,1.1,2.2,328.8,0.04,19.7,23.6,"07:02:16",1
"16/09/15","07:20",0.0,22.5,85.8,1010.4,306.8,0.7,1.7,337.7,0.08,20.0,23.5,"07:11:20",1
"16/09/15","07:30",0.0,23.2,83.2,1010.2,327.9,1.0,2.4,354.8,0.11,20.2,23.6,"07:27:36",1
"16/09/15","07:40",0.0,23.4,81.6,1010.7,312.8,0.8,1.3,344.4,0.09,20.1,23.8,"07:32:48",1
"16/09/15","07:50",0.0,23.4,82.0,1010.4,306.6,0.8,1.3,345.4,0.09,20.2,23.7,"07:45:20",1
"16/09/15","08:00",0.0,23.7,80.8,1010.0,309.0,0.7,1.6,324.8,0.10,20.2,23.8,"07:58:08",1
"16/09/15","08:10",0.0,23.9,80.3,1010.4,301.1,0.5,1.3,343.1,0.11,20.3,23.8,"08:00:40",1
"16/09/15","08:20",0.0,24.2,79.4,1010.4,322.1,0.7,1.4,325.8,0.17,20.4,24.0,"08:16:08",1
"16/09/15","08:30",0.0,25.1,77.7,1010.4,290.5,0.6,2.0,329.8,0.24,21.0,23.8,"08:21:28",1
"16/09/15","08:40",0.0,24.6,76.8,1010.2,333.8,0.7,1.9,327.4,0.14,20.3,24.3,"08:36:56",1
"16/09/15","08:50",0.0,24.5,77.0,1010.2,314.1,0.7,2.2,6.2,0.16,20.2,24.2,"08:47:12",1
"16/09/15","09:00",0.0,24.8,77.7,1009.7,297.3,0.5,1.4,318.9,0.17,20.7,24.3,"08:55:52",1
"16/09/15","09:10",0.0,24.8,77.6,1010.0,306.3,0.6,1.6,349.6,0.16,20.7,24.2,"09:01:04",1
"16/09/15","09:20",0.0,25.1,77.8,1009.7,272.9,0.6,1.3,353.9,0.18,21.0,24.5,"09:10:48",1
"16/09/15","09:30",0.0,25.4,74.6,1009.5,309.9,0.5,2.1,350.8,0.18,20.6,24.5,"09:25:52",1
"16/09/15","09:40",0.0,25.8,73.5,1009.7,333.2,0.7,1.8,341.8,0.19,20.7,24.6,"09:36:00",1
"16/09/15","09:50",0.0,26.1,70.6,1009.5,9.7,1.2,3.2,43.7,0.28,20.4,24.5,"09:41:52",1
"16/09/15","10:00",0.0,25.7,70.6,1009.5,354.9,1.5,2.9,335.2,0.21,20.0,24.8,"09:55:20",1
"16/09/15","10:10",0.0,25.8,71.7,1009.3,340.4,1.3,3.7,350.1,0.20,20.3,24.9,"10:04:40",1
"16/09/15","10:20",0.0,26.1,70.5,1009.3,346.2,0.7,1.9,2.3,0.20,20.4,24.9,"10:14:24",1
"16/09/15","10:30",0.0,26.3,67.9,1009.0,348.1,0.7,2.0,42.3,0.22,19.9,25.0,"10:28:32",1
"16/09/15","10:40",0.0,26.5,69.4,1008.8,9.3,0.6,1.9,352.2,0.20,20.5,24.9,"10:33:36",1
"16/09/15","10:50",0.0,26.8,65.6,1008.3,310.8,0.5,1.8,4.7,0.25,19.9,25.0,"10:48:08",1
"16/09/15","11:00",0.0,26.5,65.7,1008.6,15.3,0.8,1.8,358.4,0.22,19.6,25.2,"10:55:36",1
"16/09/15","11:10",0.0,26.6,68.7,1008.1,2.3,0.8,2.6,351.3,0.22,20.4,25.2,"11:05:36",1
"16/09/15","11:20",0.0,27.3,68.2,1008.3,263.2,0.5,2.0,228.1,0.31,21.0,25.2,"11:18:00",1
"16/09/15","11:30",0.0,27.4,65.0,1008.8,353.7,0.6,1.6,14.8,0.26,20.3,25.5,"11:25:20",1
"16/09/15","11:40",0.0,26.8,68.6,1008.6,344.1,0.7,1.8,358.5,0.20,20.6,25.4,"11:33:04",1
"16/09/15","11:50",0.0,26.9,65.6,1008.3,2.8,0.7,2.2,345.6,0.22,20.0,25.6,"11:48:56",1
"16/09/15","12:00",0.0,26.7,68.4,1008.6,352.8,0.8,2.2,346.4,0.17,20.4,25.5,"11:59:36",1
"16/09/15","12:10",0.0,26.4,67.1,1008.3,359.0,1.0,2.9,3.4,0.14,19.8,25.7,"12:08:08",1
"16/09/15","12:20",0.0,26.3,67.8,1007.8,353.2,1.1,2.9,356.0,0.12,19.9,26.0,"12:12:56",1
"16/09/15","12:30",0.0,26.2,69.0,1008.3,354.6,1.2,2.4,349.3,0.11,20.1,25.8,"12:29:52",1
"16/09/15","12:40",0.0,25.8,69.8,1008.3,334.3,1.0,2.4,2.0,0.10,19.9,25.6,"12:36:00",1
"16/09/15","12:50",0.0,25.8,71.0,1008.3,331.5,1.0,2.4,350.1,0.09,20.2,25.6,"12:46:40",1
"16/09/15","13:00",0.0,25.7,70.3,1008.3,343.6,1.2,2.4,339.1,0.10,19.9,25.8,"12:57:36",1
"16/09/15","13:10",0.0,25.8,70.7,1008.3,347.6,1.3,2.5,327.3,0.11,20.1,25.6,"13:06:48",1
"16/09/15","13:20",0.0,25.8,69.7,1008.3,338.1,1.1,2.6,344.4,0.11,19.9,25.4,"13:18:40",1
"16/09/15","13:30",0.0,25.7,70.6,1008.3,330.6,1.1,2.2,340.2,0.10,20.0,25.5,"13:23:28",1
"16/09/15","13:40",0.0,25.8,69.6,1008.1,342.9,1.1,2.1,351.7,0.10,19.9,25.4,"13:38:00",1
"16/09/15","13:50",0.0,26.0,70.0,1008.1,334.6,1.0,2.5,350.1,0.12,20.1,25.7,"13:45:52",1
"16/09/15","14:00",0.0,26.1,69.2,1007.8,333.2,0.8,1.9,352.5,0.12,20.1,25.4,"13:57:20",1
"16/09/15","14:10",0.0,26.3,68.7,1007.6,355.0,0.8,1.9,348.5,0.13,20.1,25.5,"14:01:36",1
"16/09/15","14:20",0.0,26.2,67.4,1007.8,342.9,1.0,2.0,347.2,0.14,19.7,25.5,"14:18:08",1
"16/09/15","14:30",0.0,26.3,69.2,1007.6,351.4,0.8,2.0,352.7,0.13,20.2,25.7,"14:27:20",1
"16/09/15","14:40",0.0,26.3,71.3,1007.8,293.7,0.3,1.2,9.0,0.14,20.7,25.7,"14:30:32",1
"16/09/15","14:50",0.0,26.4,68.3,1007.6,331.3,0.5,1.4,356.5,0.14,20.1,25.7,"14:47:36",1
"16/09/15","15:00",0.0,26.5,68.9,1007.4,318.6,0.5,1.8,12.3,0.15,20.4,25.6,"14:52:48",1
"16/09/15","15:10",0.0,26.7,68.8,1007.6,341.2,0.8,2.4,339.7,0.16,20.5,25.8,"15:03:36",1
"16/09/15","15:20",0.0,26.5,67.7,1007.6,342.9,0.7,2.0,3.3,0.14,20.1,25.7,"15:18:16",1
"16/09/15","15:30",0.0,26.3,69.1,1007.6,327.2,0.5,2.2,4.3,0.12,20.2,25.7,"15:28:24",1
"16/09/15","15:40",0.0,26.3,67.5,1007.6,342.8,0.7,2.1,343.5,0.12,19.8,25.9,"15:38:24",1
"16/09/15","15:50",0.0,26.3,68.8,1007.4,339.6,0.8,1.8,347.4,0.11,20.2,25.6,"15:42:48",1
"16/09/15","16:00",0.0,26.0,67.1,1007.6,304.1,0.5,1.2,350.9,0.09,19.5,25.8,"15:59:28",1
"16/09/15","16:10",0.0,25.9,70.0,1007.6,331.6,0.7,2.2,346.6,0.08,20.1,25.9,"16:07:28",1
"16/09/15","16:20",0.0,25.9,69.1,1007.6,332.5,1.1,2.8,343.0,0.07,19.8,25.6,"16:13:20",1
"16/09/15","16:30",0.0,25.9,70.6,1007.6,332.1,1.0,1.7,1.0,0.06,20.2,25.6,"16:20:48",1
"16/09/15","16:40",0.0,26.0,72.7,1008.1,300.3,0.5,1.6,328.8,0.06,20.8,25.9,"16:33:12",1
"16/09/15","16:50",0.0,25.7,72.7,1008.1,295.1,0.7,1.2,346.1,0.05,20.5,25.8,"16:44:40",1
"16/09/15","17:00",0.0,25.5,72.6,1008.1,305.1,0.7,1.6,351.2,0.04,20.3,25.7,"16:53:44",1
"16/09/15","17:10",0.0,25.3,73.0,1008.3,297.5,0.6,1.7,335.6,0.04,20.2,25.6,"17:00:08",1
"16/09/15","17:20",0.0,25.0,73.3,1008.3,299.2,0.7,1.8,310.7,0.02,19.9,25.6,"17:17:36",1
"16/09/15","17:30",0.0,24.8,75.2,1008.6,306.9,0.6,1.7,339.7,0.02,20.2,25.5,"17:25:04",1
"16/09/15","17:40",0.0,24.5,76.3,1008.1,309.4,0.6,1.4,332.2,0.01,20.1,25.7,"17:30:48",1
"16/09/15","17:50",0.0,24.0,77.5,1008.6,308.5,0.6,1.1,340.6,0.00,19.9,25.6,"17:48:56",1
"16/09/15","18:00",0.0,23.6,78.2,1008.8,318.6,0.8,2.1,343.8,0.00,19.6,25.2,"17:59:44",1
"16/09/15","18:10",0.0,23.2,79.2,1008.8,308.8,1.0,1.6,330.4,0.00,19.4,25.3,"18:08:00",1
"16/09/15","18:20",0.0,22.9,79.8,1008.6,310.9,1.1,1.8,346.8,0.00,19.3,25.4,"18:17:28",1
"16/09/15","18:30",0.0,22.6,80.6,1008.8,309.9,1.3,2.6,333.7,0.00,19.1,25.3,"18:22:48",1
"16/09/15","18:40",0.0,22.4,80.5,1009.3,290.1,1.0,1.9,327.8,0.00,18.9,25.2,"18:34:08",1
"16/09/15","18:50",0.0,22.2,81.4,1009.3,278.6,0.7,1.2,266.1,0.00,18.9,25.0,"18:42:00",1
"16/09/15","19:00",0.0,22.0,82.0,1009.5,280.8,0.8,1.7,293.5,0.00,18.8,24.8,"18:56:00",1
"16/09/15","19:10",0.0,22.0,82.1,1009.5,272.2,1.0,1.9,323.7,0.00,18.8,24.8,"19:01:28",1
"16/09/15","19:20",0.0,22.0,81.7,1009.7,271.1,1.0,1.8,242.2,0.00,18.8,24.8,"19:13:20",1
"16/09/15","19:30",0.0,21.9,81.9,1009.7,280.0,0.8,1.4,303.1,0.00,18.7,24.7,"19:25:04",1
"16/09/15","19:40",0.0,21.9,81.6,1009.7,301.1,1.0,2.0,318.8,0.00,18.7,24.7,"19:37:36",1
"16/09/15","19:50",0.0,21.9,81.6,1009.7,285.5,0.7,1.7,322.8,0.00,18.7,24.7,"19:40:08",1
"16/09/15","20:00",0.0,21.8,82.5,1010.2,296.2,0.7,1.4,314.3,0.00,18.7,24.6,"19:51:44",1
"16/09/15","20:10",0.0,21.7,83.5,1010.2,321.4,1.2,2.1,334.6,0.00,18.8,24.6,"20:06:56",1
"16/09/15","20:20",0.0,21.7,83.0,1010.0,324.5,1.3,2.4,343.6,0.00,18.7,24.6,"20:14:48",1
"16/09/15","20:30",0.0,21.7,82.5,1010.4,332.8,1.5,2.4,339.6,0.00,18.6,24.4,"20:23:44",1
"16/09/15","20:40",0.0,21.8,82.1,1010.2,341.0,1.5,2.7,343.8,0.00,18.7,24.6,"20:31:20",1
"16/09/15","20:50",0.0,21.7,82.5,1010.2,336.1,1.5,3.2,341.0,0.00,18.6,24.4,"20:46:40",1
"16/09/15","21:00",0.0,21.3,83.8,1010.2,328.4,1.6,2.8,343.7,0.00,18.5,24.3,"20:51:44",1
"16/09/15","21:10",0.0,21.1,84.7,1010.7,332.6,1.5,2.2,341.1,0.00,18.5,24.2,"21:00:56",1
"16/09/15","21:20",0.0,21.0,85.0,1010.4,331.9,1.3,2.2,350.4,0.00,18.4,24.3,"21:18:40",1
"16/09/15","21:30",0.0,21.1,85.2,1010.4,317.8,1.2,1.7,335.9,0.00,18.6,24.1,"21:20:56",1
"16/09/15","21:40",0.0,21.2,84.6,1010.7,335.3,1.5,2.5,338.3,0.00,18.5,24.3,"21:30:02",1
"16/09/15","21:50",0.0,21.3,84.5,1010.4,340.7,1.6,2.9,340.6,0.00,18.6,24.2,"21:48:48",1
"16/09/15","22:00",0.0,21.3,85.0,1010.7,328.9,1.5,2.6,338.2,0.00,18.7,24.1,"21:54:24",1
"16/09/15","22:10",0.0,21.3,85.1,1010.9,343.9,1.7,2.9,356.5,0.00,18.7,24.1,"22:02:56",1
"16/09/15","22:20",0.0,21.2,85.2,1010.7,340.5,1.7,3.5,332.9,0.00,18.7,24.0,"22:16:00",1
"16/09/15","22:30",0.0,21.1,85.7,1010.7,334.4,1.7,3.3,341.0,0.00,18.7,24.0,"22:26:08",1
"16/09/15","22:40",0.0,21.0,86.2,1010.7,338.5,1.7,3.6,341.5,0.00,18.6,23.9,"22:35:36",1
"16/09/15","22:50",0.0,20.9,86.4,1010.4,332.7,1.5,2.2,353.5,0.00,18.6,23.9,"22:43:12",1
"16/09/15","23:00",0.0,20.9,86.6,1010.7,337.0,1.7,3.3,329.0,0.00,18.6,23.7,"22:58:56",1
"16/09/15","23:10",0.0,20.8,86.6,1010.7,342.9,1.7,4.0,356.1,0.00,18.5,23.7,"23:02:48",1
"16/09/15","23:20",0.0,20.7,87.0,1010.4,341.9,1.6,2.7,345.9,0.00,18.5,23.6,"23:11:12",1
"16/09/15","23:30",0.0,20.5,87.2,1010.7,337.0,1.7,3.1,338.7,0.00,18.3,23.8,"23:21:12",1
"16/09/15","23:40",0.0,20.4,87.7,1010.9,338.8,1.8,3.3,330.1,0.00,18.3,23.8,"23:32:40",1
"16/09/15","23:50",0.0,20.4,88.2,1010.2,330.7,1.5,2.8,342.2,0.00,18.4,23.6,"23:43:36",1
"16/09/15","24:00",0.0,20.4,88.3,1010.4,325.2,1.3,3.2,329.8,0.00,18.4,23.5,"23:53:28",1
